This is the latest recevied weather packets stored in our database for station/object KJ6LNH-1. If no packets are shown the sender has not sent any weather packets the latest 10 day(s).
| Time | Temp. | Humidity | Pressure | Rain* | Wind** | Luminosity | Snow |
|---|---|---|---|---|---|---|---|
| 1787944506 | 22.78° C | 46% | 1014.5 hPa | 0 mm | - | - | - |
| 1787944206 | 23.33° C | 46% | 1014.4 hPa | 0 mm | - | - | - |
| 1787943905 | 23.33° C | 44% | 1014.3 hPa | 0 mm | - | - | - |
| 1787943606 | 23.33° C | 43% | 1014.4 hPa | 0 mm | - | - | - |
| 1787943006 | 23.89° C | 39% | 1014.3 hPa | 0 mm | - | - | - |
| 1787942705 | 23.89° C | 39% | 1014.2 hPa | 0 mm | - | - | - |
| 1787942406 | 23.89° C | 39% | 1014.2 hPa | 0 mm | - | - | - |
| 1787942106 | 23.89° C | 38% | 1014.2 hPa | 0 mm | - | - | - |
| 1787941806 | 23.89° C | 38% | 1014.1 hPa | 0 mm | - | - | - |
| 1787941505 | 23.33° C | 38% | 1014.1 hPa | 0 mm | - | - | - |
| 1787941206 | 23.33° C | 38% | 1014.1 hPa | 0 mm | - | - | - |
| 1787940908 | 23.33° C | 38% | 1014.1 hPa | 0 mm | - | - | - |
| 1787940606 | 22.78° C | 40% | 1014 hPa | 0 mm | - | - | - |
| 1787940307 | 22.78° C | 41% | 1014.1 hPa | 0 mm | - | - | - |
| 1787940006 | 22.22° C | 42% | 1014.1 hPa | 0 mm | - | - | - |
| 1787939707 | 22.22° C | 43% | 1014.1 hPa | 0 mm | - | - | - |
| 1787939406 | 22.22° C | 44% | 1014 hPa | 0 mm | - | - | - |
| 1787939105 | 22.22° C | 46% | 1014 hPa | 0 mm | - | - | - |
| 1787938205 | 22.22° C | 45% | 1013.8 hPa | 0 mm | - | - | - |
| 1787937906 | 22.22° C | 44% | 1013.9 hPa | 0 mm | - | - | - |
| 1787937605 | 22.22° C | 43% | 1013.8 hPa | 0 mm | - | - | - |
| 1787937306 | 22.78° C | 41% | 1013.6 hPa | 0 mm | - | - | - |
| 1787937006 | 22.78° C | 41% | 1013.5 hPa | 0 mm | - | - | - |
| 1787936705 | 22.78° C | 41% | 1013.5 hPa | 0 mm | - | - | - |
| 1787936406 | 22.22° C | 42% | 1013.5 hPa | 0 mm | - | - | - |
* Rain latest hour (hover to see other rain measurements)
** Current wind speed in m/s (hover to see current wind gust speed)